#timestamp,LO_Frequency,Hit,StdDev 
1605045615.2,286047004.1,N
1605045635.0,286047003.2,N
1605045635.9,286047003.2,N
1605045655.8,286047004.6,N
1605045675.6,286047004.6,N
1605045695.4,286047003.4,N
1605045715.3,286047003.9,N
1605045735.1,286047001.7,N
1605045755.8,286047007.2,N
1605045775.7,286047004.8,N
1605045795.5,286047003.6,N
1605045815.4,286047003.0,N
1605045835.2,286047005.2,N
1605045855.0,286047007.4,N
1605045855.9,286047007.4,N
1605045875.8,286047008.7,N
1605045895.6,286047010.4,Y
1605045915.5,286047006.3,P
1605045935.3,286047010.6,P
1605045955.1,286047007.9,N
1605045975.9,286047006.7,N
1605045995.7,286047007.5,Y
1605046015.5,286047002.7,P
1605046035.4,286046999.9,N
1605046055.2,286046999.9,N
1605046075.1,286046998.5,N
1605046076.0,286046998.5,N
1605046095.8,286046998.5,N
1605046115.6,286047002.4,N
1605046135.5,286047003.5,N
1605046155.3,286047005.3,N
1605046175.1,286046999.8,N
1605046195.9,286047001.1,N
1605046215.7,286047000.6,N
1605046235.6,286046999.8,N
1605046255.4,286047002.7,N
1605046275.2,286046998.9,N
1605046295.1,286047000.8,N
1605046296.0,286047000.8,N
1605046315.8,286046998.7,N
1605046335.6,286046999.6,N
1605046355.5,286046999.4,N
1605046375.3,286046999.7,N
1605046395.2,286047002.5,N
1605046415.9,286046998.1,N
1605046435.7,286047000.3,N
1605046455.6,286047001.1,N
1605046475.4,286047002.2,N
1605046495.2,286047002.2,N
1605046515.1,286047000.3,N
1605046516.0,286047000.3,N
1605046535.8,286046996.9,N
1605046555.7,286046996.8,N
1605046575.5,286046995.0,N
1605046595.3,286046997.3,N
1605046615.2,286046995.7,N
1605046635.0,286046996.3,N
1605046635.9,286046996.3,N
1605046655.8,286046995.3,N
1605046675.6,286047011.9,Y
1605046695.4,286046993.3,P
1605046715.3,286046996.3,N
1605046735.1,286046997.4,N
1605046755.9,286046997.5,N
1605046775.7,286046996.4,N
1605046795.5,286046996.4,N
1605046815.4,286046996.1,N
1605046835.2,286046995.4,N
1605046855.0,286046996.3,N
1605046856.0,286046996.3,N
1605046875.8,286046994.9,Y
1605046895.6,286047000.1,P
1605046915.5,286047003.5,N
1605046935.3,286047004.4,N
1605046955.1,286047003.4,N
1605046975.9,286047002.9,N
1605046995.7,286047001.3,N
1605047015.6,286047002.3,N
1605047035.4,286047001.4,N
1605047055.2,286047002.2,N
1605047075.1,286047004.4,N
1605047076.0,286047004.4,N
1605047095.8,286047000.2,N
1605047115.6,286047000.1,N
1605047135.5,286047001.3,N
1605047155.3,286047003.3,N
1605047175.2,286047005.2,N
1605047195.9,286047003.0,N
1605047215.7,286047004.9,N
1605047235.6,286047008.0,Y
1605047255.4,286047004.7,P
1605047275.2,286047006.7,P
1605047295.1,286047006.5,P
1605047296.0,286047006.5,Y
1605047315.8,286047001.2,P
1605047335.7,286047001.2,N
1605047355.5,286047001.0,N
1605047375.3,286046996.9,N
1605047395.2,286046997.6,N
1605047415.0,286046995.7,N
1605047415.9,286046995.7,N
1605047435.7,286046995.6,N
1605047455.6,286046993.3,N
1605047475.4,286046994.7,N
1605047495.3,286046996.3,N
1605047515.1,286046995.1,N
1605047516.0,286046995.1,N
1605047535.8,286046997.8,N
1605047555.7,286046998.5,N
1605047575.5,286047002.6,N
1605047595.3,286047003.1,N
1605047615.2,286047005.1,N
1605047635.0,286047008.3,N
1605047635.9,286047008.3,N
1605047655.8,286047010.4,N
1605047675.6,286047010.3,N
1605047695.4,286047009.3,N
1605047715.3,286047009.5,N
1605047735.1,286047006.1,N
1605047755.8,286047006.3,N
1605047775.7,286047008.7,N
1605047795.5,286047008.6,N
1605047815.4,286047014.0,N
1605047835.2,286047010.9,N
1605047855.0,286047009.3,N
1605047855.9,286047009.3,N
1605047875.8,286047013.8,N
1605047895.6,286047015.3,N
1605047915.4,286047015.4,N
1605047935.3,286047011.7,N
1605047955.1,286047015.3,N
1605047975.9,286047013.7,N
1605047995.7,286047011.6,N
1605048015.5,286047011.6,N
1605048035.4,286047013.2,N
1605048055.2,286047009.7,N
1605048075.0,286047012.0,N
1605048075.9,286047012.0,N
1605048095.8,286047017.1,Y
1605048115.6,286047004.6,P
1605048135.5,286047005.2,N
1605048155.3,286047007.3,P
1605048175.1,286047010.4,Y
1605048195.9,286046998.9,P
1605048215.7,286046997.5,N
1605048235.5,286046997.6,N
1605048255.4,286046997.1,N
1605048275.2,286046997.1,N
1605048295.1,286046995.7,N
1605048296.0,286046995.7,N
1605048315.8,286046993.6,N
1605048335.6,286046994.1,N
1605048355.5,286046994.7,N
1605048375.3,286046992.4,N
1605048395.1,286046999.6,N
1605048415.9,286047001.0,N
1605048435.7,286047000.9,N
1605048455.6,286046998.7,N
1605048475.4,286046997.2,N
1605048495.2,286046997.4,N
1605048515.1,286046997.5,N
1605048516.0,286046997.5,N
1605048535.8,286046997.1,N
1605048555.7,286046997.9,N
1605048575.5,286046996.0,N
1605048595.3,286046994.5,N
1605048615.2,286046991.7,N
1605048635.0,286046994.0,N
1605048635.9,286046994.0,N
1605048655.8,286046994.1,N
1605048675.6,286046997.4,N
1605048695.4,286046995.1,N
1605048715.3,286046995.5,N
1605048735.1,286046997.6,N
1605048755.8,286046997.2,N
1605048775.7,286046997.8,N
1605048795.5,286046996.4,N
1605048815.4,286046996.2,N
1605048835.2,286046999.3,N
1605048855.0,286046998.4,N
1605048855.9,286046998.4,N
1605048875.8,286046999.1,N
1605048895.6,286046999.1,N
1605048915.4,286046996.7,N
1605048935.3,286046995.1,N
1605048955.1,286046995.2,N
1605048975.9,286046999.4,N
1605048995.7,286046996.8,N
1605049015.5,286046995.1,N
1605049035.4,286046996.2,N
1605049055.2,286046994.0,Y
1605049075.0,286046997.3,P
1605049075.9,286046997.3,P
1605049095.8,286046999.3,N
1605049115.6,286047001.2,N
1605049135.5,286047000.1,N
1605049155.3,286047002.4,N
1605049175.1,286047001.0,N
1605049195.9,286047000.3,N
